Temp
81 96 102 98 82 85 81 87 99 93 92 99 99 98 96 96 91 78 104 106 105 98 92 89 80 82 81 81 80 79 79 79 79 79 79 79 79 80 80 80 80 81 81 81 81 81 81 81 81
95 99 98 92 79 76 82 94 92 95 98 99 99 98 96 89 98 97 99 104 103 97 92 91 80 81 80 80 79 79 79 79 79 79 79 79 79 80 80 80 80 81 81 81 81 81 81 81 81
89 99 88 84 80 76 83 95 96 99 98 99 97 100 97 90 98 100 104 104 102 97 97 88 79 80 80 80 79 79 79 79 79 79 79 80 79 79 79 80 80 81 81 81 81 81 81 81 81
93 93 90 78 77 85 89 97 99 97 99 100 99 93 96 98 100 103 104 104 100 100 99 82 79 79 79 79 79 79 79 79 79 79 79 79 79 79 79 80 80 81 81 81 81 81 81 81 80
94 91 77 76 79 88 95 96 97 94 97 98 99 93 91 98 103 103 103 103 101 101 98 89 79 79 79 79 79 79 79 79 79 79 79 79 79 79 79 80 80 81 81 81 81 80 80 80 80
83 87 76 73 80 88 95 98 94 95 98 98 96 95 92 100 101 102 104 102 104 100 95 89 80 79 79 79 79 79 79 79 79 79 79 79 79 79 79 80 80 80 81 81 80 80 80 79 79
81 80 75 80 81 86 91 98 93 95 95 97 100 92 93 98 102 103 103 104 103 100 96 91 90 84 79 78 78 78 78 78 78 78 78 78 79 79 79 79 80 80 80 80 80 79 79 79 79
86 84 78 81 80 84 95 95 97 96 95 100 98 91 88 96 102 104 105 104 103 100 97 93 91 92 89 87 78 78 78 78 78 78 78 78 78 79 79 78 79 79 79 79 79 79 79 79 79
90 76 74 79 82 86 97 91 97 101 97 96 97 95 96 98 102 102 101 102 101 99 97 97 96 94 94 93 86 79 79 78 78 79 78 78 89 86 84 83 79 79 79 79 79 79 79 79 78
81 74 77 88 90 90 95 93 93 92 91 93 91 93 95 96 96 98 98 97 98 97 97 97 96 94 95 95 88 88 89 89 88 88 85 90 92 91 93 86 79 79 79 79 79 79 79 79 89
80 74 83 88 91 95 93 93 94 91 87 93 91 90 92 94 94 95 97 98 98 98 98 98 93 90 95 95 91 93 92 91 90 89 87 89 94 93 93 92 89 88 81 90 83 85 84 88 95
75 81 84 88 92 90 89 94 89 93 92 99 97 95 92 92 93 96 96 97 98 97 96 97 96 92 94 97 93 95 95 94 92 92 88 90 92 91 92 94 95 91 93 91 92 94 92 93 93
77 81 84 87 90 87 89 88 89 89 96 97 96 94 93 91 93 97 99 99 97 95 96 96 95 91 92 93 95 96 95 95 95 93 91 92 92 91 92 92 94 95 95 94 92 93 93 93 93
81 81 83 85 86 85 83 85 88 90 95 94 93 91 93 93 93 93 96 95 95 94 94 96 93 90 92 92 93 93 94 96 95 95 94 90 92 91 92 90 91 92 94 95 95 94 93 92 93
81 75 78 81 83 81 85 79 81 91 93 91 90 92 93 93 94 92 94 93 94 93 93 92 92 91 89 89 91 92 95 95 94 95 93 90 90 90 85 90 91 93 93 92 93 91 91 90 92
73 74 67 78 80 82 82 71 84 90 89 86 90 91 91 92 93 94 95 92 92 90 90 91 95 93 89 89 90 91 94 94 95 95 94 91 89 86 85 90 92 93 92 93 91 91 91 91 92
69 62 65 72 81 80 78 73 84 89 88 85 88 90 90 90 92 93 95 93 85 86 84 85 90 92 90 88 90 90 91 92 94 92 90 88 86 85 85 89 91 90 91 91 90 91 90 89 89
60 62 67 68 76 77 74 74 84 86 86 84 87 89 89 90 90 92 93 93 91 90 86 84 87 88 90 90 88 92 92 90 91 89 88 88 88 87 86 85 87 89 89 90 90 87 90 89 87
70 66 67 72 79 73 73 74 81 84 85 84 86 87 88 90 93 93 93 94 92 90 88 87 84 84 88 90 90 89 88 89 89 89 84 87 87 87 86 87 87 86 86 87 88 86 84 84 87
69 66 65 73 78 74 72 72 80 81 82 85 86 86 88 90 92 92 92 92 91 90 89 87 87 84 83 86 88 91 91 91 90 90 87 87 88 86 86 85 85 85 88 84 85 84 82 85 86
66 67 66 69 73 74 72 69 73 80 82 84 87 89 90 90 90 91 91 90 91 89 88 88 87 87 87 87 89 88 88 89 90 90 90 90 89 88 86 86 84 84 83 82 83 80 80 80 84
60 72 71 70 65 58 72 58 69 76 76 81 84 87 88 90 91 92 92 91 91 91 92 90 88 87 88 87 87 84 84 86 87 84 81 81 89 87 86 83 83 81 81 82 83 84 83 81 81
65 71 69 70 65 66 66 64 69 75 72 76 82 85 88 90 90 91 93 94 95 94 94 91 89 87 87 86 85 82 82 89 91 85 85 83 83 83 84 81 79 78 83 85 82 81 80 75 76
73 69 69 68 65 55 64 64 69 71 73 77 81 84 86 89 91 93 94 95 95 97 97 93 88 85 87 86 86 82 82 85 83 85 80 78 81 81 80 82 78 79 77 79 79 78 78 77 77
68 63 53 50 51 54 69 63 72 77 80 81 81 83 86 89 90 91 91 93 93 94 96 91 86 83 85 85 85 81 80 80 79 80 80 79 74 79 75 78 78 78 75 79 78 77 75 74 73
64 64 57 45 49 57 68 59 70 81 84 85 86 86 87 88 91 91 92 93 94 94 94 90 85 83 84 82 82 80 78 78 76 76 79 80 82 79 78 78 77 78 77 77 76 77 80 76 76
63 59 72 63 65 60 64 68 76 79 79 82 83 85 85 87 89 90 92 92 92 92 90 87 82 79 76 75 77 76 77 76 76 76 78 79 78 80 77 76 76 76 76 75 74 76 75 76 75
68 72 59 64 49 48 57 61 63 70 73 78 79 80 82 85 88 89 88 87 89 84 81 81 81 72 74 76 77 77 77 77 76 75 73 73 74 75 75 75 75 75 75 74 72 73 74 73 74
63 60 65 65 64 53 50 59 73 72 76 76 78 80 77 79 81 81 82 80 82 82 82 76 74 75 77 78 77 76 76 75 75 74 74 73 72 73 74 74 74 73 73 73 70 69 71 71 70
69 64 66 59 56 63 60 57 78 77 77 76 76 72 70 74 75 77 79 78 76 77 74 75 78 78 78 77 75 73 73 73 70 70 70 70 69 71 69 70 70 70 71 69 68 68 68 68 67
MSLP
1010.09 1008.62 1007.12 1005.72 1004.28 1001.29 998.27 996.64 995.07 994.76 995.93 996.84 997.44 996.94 997.16 998.00 998.31 1000.35 1001.73 1002.53 1003.60 1005.79 1007.38 1008.21 1009.03 1009.54 1010.02 1010.33 1010.80 1011.37 1011.68 1011.96 1012.40 1012.82 1013.08 1013.49 1013.74 1013.91 1014.03 1014.22 1014.38 1014.49 1014.66 1014.93 1015.17 1015.23 1015.25 1015.27 1015.29
1008.64 1007.41 1006.57 1004.63 1002.42 999.50 997.11 995.70 994.84 995.76 996.35 997.52 997.66 997.82 997.78 999.41 1000.16 1001.17 1002.09 1002.96 1004.24 1006.13 1007.46 1008.24 1009.25 1009.71 1010.26 1010.57 1011.01 1011.40 1011.79 1012.20 1012.56 1013.04 1013.36 1013.63 1013.99 1014.15 1014.34 1014.50 1014.64 1014.75 1014.91 1015.10 1015.27 1015.36 1015.44 1015.49 1015.47
1008.99 1007.14 1005.68 1003.47 1001.31 998.76 995.91 994.94 994.80 995.82 997.00 997.41 997.26 998.11 998.68 1000.37 1000.86 1001.25 1002.37 1003.51 1004.88 1006.33 1007.24 1008.67 1009.32 1009.82 1010.48 1010.81 1011.21 1011.54 1011.92 1012.29 1012.66 1013.12 1013.47 1013.95 1014.24 1014.40 1014.49 1014.65 1014.74 1014.89 1015.01 1015.20 1015.33 1015.48 1015.56 1015.55 1015.60
1007.51 1006.59 1005.48 1002.34 999.63 998.50 996.35 994.43 995.02 995.79 997.28 997.52 997.66 998.19 1000.48 1001.35 1001.03 1001.76 1003.12 1003.87 1005.14 1006.11 1007.15 1009.32 1009.54 1010.02 1010.56 1010.98 1011.32 1011.72 1012.07 1012.43 1012.78 1013.20 1013.66 1014.02 1014.38 1014.62 1014.79 1014.82 1014.97 1015.13 1015.25 1015.39 1015.41 1015.54 1015.67 1015.71 1015.67
1006.61 1005.01 1003.29 1001.21 999.59 997.84 996.68 995.94 995.94 996.49 996.87 997.25 997.83 998.36 1000.21 1001.55 1001.71 1002.64 1003.42 1004.19 1004.93 1005.85 1007.30 1009.07 1009.78 1010.15 1010.61 1011.03 1011.53 1011.91 1012.24 1012.62 1012.90 1013.25 1013.76 1014.24 1014.57 1014.79 1014.98 1015.07 1015.14 1015.32 1015.44 1015.57 1015.74 1015.81 1015.87 1016.03 1016.06
1005.36 1004.12 1001.54 999.93 998.63 997.94 996.62 996.33 997.30 997.23 996.97 997.36 998.12 998.50 1000.39 1001.52 1001.95 1002.71 1003.58 1004.34 1004.95 1006.05 1007.74 1009.15 1010.18 1010.55 1010.91 1011.17 1011.53 1012.00 1012.38 1012.73 1013.05 1013.34 1013.76 1014.21 1014.61 1014.88 1015.04 1015.13 1015.32 1015.47 1015.66 1015.79 1015.87 1016.06 1016.21 1016.33 1016.42
1003.89 1002.60 1000.63 999.12 998.06 997.05 996.76 997.14 997.65 997.68 997.45 997.64 997.98 998.74 1000.68 1001.17 1002.02 1002.70 1003.52 1004.32 1005.16 1006.57 1007.73 1009.17 1009.91 1010.71 1011.27 1011.59 1011.87 1012.23 1012.54 1012.87 1013.16 1013.50 1013.95 1014.34 1014.63 1014.96 1015.16 1015.37 1015.45 1015.59 1015.77 1015.95 1016.07 1016.17 1016.28 1016.28 1016.32
1003.67 1002.21 1000.33 998.85 997.44 996.27 996.40 996.96 997.91 997.88 997.76 998.95 999.73 998.87 1000.59 1001.80 1002.23 1002.82 1003.40 1004.14 1005.28 1006.67 1007.72 1008.80 1009.58 1010.24 1010.89 1011.53 1012.07 1012.33 1012.63 1013.01 1013.41 1013.72 1014.05 1014.36 1014.72 1015.00 1015.15 1015.35 1015.50 1015.67 1015.73 1015.79 1015.93 1016.06 1016.15 1016.20 1016.17
1003.88 1001.87 999.12 997.95 997.44 996.44 996.19 996.74 998.03 998.28 998.34 999.30 999.95 1000.38 1001.21 1002.52 1002.59 1002.75 1003.21 1004.05 1005.04 1006.18 1007.56 1008.20 1009.08 1009.68 1010.19 1010.98 1012.00 1012.61 1012.85 1013.05 1013.38 1013.73 1014.11 1014.36 1014.08 1014.49 1014.74 1014.74 1015.10 1015.44 1015.60 1015.67 1015.73 1015.90 1015.98 1016.00 1015.92
1002.25 1000.75 998.81 998.56 997.66 996.87 996.24 997.04 997.94 998.50 999.03 999.21 1000.89 1001.96 1002.53 1002.88 1002.94 1002.80 1003.08 1003.72 1004.69 1005.77 1006.98 1007.70 1008.51 1009.31 1009.58 1010.40 1011.71 1012.24 1012.60 1012.96 1013.20 1013.34 1013.81 1013.60 1013.34 1013.57 1013.51 1014.20 1015.07 1015.33 1015.40 1015.56 1015.69 1015.70 1015.71 1015.70 1014.83
1001.65 999.79 999.88 998.56 998.02 997.40 996.59 997.07 998.54 998.23 998.74 998.98 999.88 1001.64 1002.57 1002.82 1003.09 1003.18 1003.36 1003.76 1004.66 1005.69 1006.62 1007.37 1008.36 1009.18 1009.25 1009.83 1011.20 1011.40 1011.79 1012.18 1012.67 1013.00 1013.40 1013.25 1012.79 1013.05 1013.42 1013.55 1014.31 1014.63 1015.01 1014.57 1015.01 1015.17 1015.20 1014.55 1013.49
1001.00 1000.79 999.93 999.07 998.21 998.19 997.52 997.88 998.65 998.02 998.69 998.83 999.60 1000.90 1002.52 1002.68 1002.92 1002.95 1003.40 1003.86 1004.58 1005.58 1006.52 1007.40 1008.34 1009.17 1009.20 1009.24 1010.48 1010.50 1010.83 1011.35 1011.87 1012.31 1012.90 1012.90 1012.68 1012.73 1012.86 1012.83 1012.75 1013.42 1013.42 1013.67 1013.61 1013.53 1013.62 1013.57 1013.76
1000.45 1000.11 1000.37 999.66 998.78 999.54 999.51 998.63 998.73 999.19 999.13 999.68 1000.58 1001.36 1002.19 1002.69 1002.92 1002.87 1003.20 1003.67 1004.61 1005.64 1006.49 1007.31 1008.23 1009.14 1009.27 1009.40 1009.85 1009.87 1010.31 1010.69 1011.16 1011.73 1012.38 1012.41 1012.56 1012.52 1012.74 1012.59 1012.58 1012.48 1012.84 1012.86 1013.16 1013.09 1013.11 1013.17 1013.10
1000.54 1000.48 999.93 1000.06 999.62 1000.09 1000.09 999.67 999.62 999.48 999.85 1000.09 1000.99 1001.86 1001.90 1002.57 1002.90 1003.24 1003.22 1003.72 1004.56 1005.60 1006.54 1007.29 1008.30 1009.27 1009.64 1009.66 1009.80 1009.99 1010.21 1010.23 1010.83 1011.15 1011.61 1012.37 1012.36 1012.25 1012.58 1012.84 1012.99 1012.72 1012.43 1012.30 1012.41 1012.46 1012.74 1012.85 1012.52
1000.65 1000.41 1000.44 999.71 1000.06 1000.07 1000.50 999.96 999.38 999.79 999.94 1000.18 1001.09 1001.47 1001.63 1002.13 1002.84 1003.45 1003.82 1004.25 1004.83 1005.81 1006.67 1007.37 1008.22 1009.10 1009.69 1009.99 1010.13 1010.30 1010.14 1010.33 1010.61 1010.71 1011.33 1011.93 1012.25 1012.27 1012.82 1012.71 1012.48 1012.30 1012.37 1012.32 1012.30 1012.51 1012.60 1012.90 1012.62
1000.64 1000.44 999.54 999.55 1000.02 1000.13 1000.25 999.06 999.41 1000.00 1000.02 1000.68 1000.94 1001.24 1001.85 1002.20 1002.76 1003.44 1003.89 1004.74 1005.47 1006.20 1006.93 1007.65 1007.97 1008.65 1009.60 1009.86 1010.25 1010.32 1010.09 1010.31 1010.19 1010.54 1010.76 1011.51 1011.83 1012.30 1012.66 1012.65 1012.12 1011.95 1012.12 1012.05 1012.30 1012.33 1012.33 1012.06 1011.90
1000.33 998.82 998.89 998.93 999.56 999.85 999.83 999.31 999.04 999.77 1000.05 1000.52 1000.63 1001.00 1001.78 1002.33 1002.78 1003.44 1003.80 1004.91 1006.05 1006.67 1007.43 1008.15 1008.26 1008.41 1009.26 1009.91 1010.18 1010.37 1010.29 1010.41 1010.20 1010.80 1011.21 1011.65 1012.12 1011.75 1010.68 1011.55 1011.68 1011.98 1012.14 1012.02 1011.82 1011.94 1011.89 1011.82 1011.86
997.90 998.50 998.43 998.02 998.80 999.59 999.66 999.54 998.64 999.57 999.89 1000.37 1000.43 1000.77 1001.42 1001.92 1002.69 1003.53 1004.01 1004.83 1005.87 1006.54 1007.25 1007.92 1008.35 1008.71 1009.03 1009.62 1010.28 1010.03 1010.09 1010.51 1010.72 1011.03 1011.31 1011.50 1011.76 1011.86 1011.53 1011.52 1011.75 1011.71 1012.04 1011.87 1011.38 1011.77 1011.69 1011.66 1011.68
998.41 998.64 997.89 998.15 997.93 999.44 999.22 999.70 998.92 999.16 999.88 1000.20 1000.20 1000.65 1001.05 1001.44 1002.15 1003.32 1003.89 1004.68 1005.45 1006.25 1006.85 1007.56 1008.16 1008.54 1009.02 1009.20 1009.20 1009.53 1009.74 1010.28 1010.59 1010.74 1010.92 1011.02 1011.61 1011.30 1011.36 1011.39 1011.61 1011.86 1012.05 1011.49 1011.05 1011.52 1011.62 1011.69 1011.50
998.31 997.70 998.04 997.62 997.73 999.10 999.39 999.31 998.90 999.64 1000.00 999.97 1000.04 1000.31 1000.70 1001.14 1001.65 1002.65 1003.68 1004.43 1005.28 1006.01 1006.68 1007.34 1007.82 1008.56 1009.20 1009.26 1009.21 1008.97 1009.29 1009.60 1010.01 1010.38 1010.55 1010.70 1010.94 1010.95 1010.82 1011.02 1011.16 1011.40 1011.42 1011.38 1010.98 1011.16 1011.00 1011.02 1011.12
998.16 996.87 997.43 996.95 998.11 999.38 999.53 999.34 999.16 999.31 999.85 1000.00 999.97 1000.09 1000.54 1000.82 1001.26 1002.04 1003.23 1004.22 1004.95 1005.72 1006.50 1007.07 1007.65 1008.10 1008.66 1008.94 1009.08 1009.40 1009.55 1009.54 1009.26 1009.56 1009.62 1009.81 1010.04 1010.13 1010.33 1010.42 1010.91 1011.05 1011.27 1010.68 1010.88 1010.93 1010.97 1010.90 1010.81
998.00 997.44 997.10 997.17 998.03 998.32 998.78 997.79 998.25 998.63 999.27 999.42 999.50 999.68 1000.13 1000.66 1001.37 1001.83 1002.53 1003.56 1004.53 1005.15 1005.95 1006.69 1007.33 1007.88 1008.32 1008.69 1008.69 1009.12 1009.14 1008.87 1008.82 1009.08 1009.25 1009.23 1009.15 1008.98 1010.06 1010.32 1010.49 1011.02 1011.01 1010.60 1010.60 1010.67 1010.81 1010.83 1010.37
997.75 998.19 997.61 997.72 998.59 997.92 998.01 997.22 996.47 998.22 998.21 998.62 998.84 999.30 999.77 1000.43 1001.24 1001.82 1002.21 1002.81 1003.62 1004.60 1005.12 1006.14 1007.04 1007.78 1008.27 1008.44 1008.86 1009.18 1009.41 1008.74 1008.42 1008.91 1009.19 1009.91 1009.90 1009.94 1010.42 1010.61 1010.73 1010.94 1010.38 1010.18 1010.54 1010.64 1010.86 1010.73 1010.92
997.79 998.13 997.77 998.24 998.36 997.57 996.81 996.85 994.66 995.68 996.71 998.02 998.85 999.34 999.96 1000.49 1000.86 1001.35 1001.88 1002.53 1003.21 1003.82 1004.40 1005.51 1006.88 1007.82 1008.15 1008.51 1008.73 1009.30 1009.30 1009.06 1008.64 1009.01 1009.96 1010.44 1010.58 1010.71 1010.99 1010.91 1011.46 1011.25 1010.82 1010.92 1010.82 1010.94 1010.94 1010.90 1010.88
997.86 997.13 996.89 997.52 997.35 995.72 995.84 996.56 993.44 994.73 995.96 996.97 998.23 999.21 999.96 1000.42 1000.84 1001.33 1001.89 1002.49 1003.14 1003.67 1004.16 1005.62 1007.16 1007.98 1008.45 1008.76 1009.00 1009.46 1009.59 1009.61 1009.89 1010.11 1010.32 1010.58 1011.07 1011.17 1012.15 1011.59 1011.50 1011.60 1011.50 1011.35 1011.42 1011.31 1010.83 1010.71 1010.97
997.42 996.16 994.90 994.72 994.76 994.72 995.48 995.14 994.30 995.02 995.77 996.73 997.59 998.50 999.41 1000.03 1000.45 1001.01 1001.51 1002.20 1002.90 1003.67 1004.35 1005.67 1007.33 1008.10 1008.68 1009.36 1009.45 1009.73 1010.07 1010.35 1010.76 1011.15 1010.84 1010.99 1011.16 1012.00 1012.28 1012.04 1012.22 1012.08 1011.94 1011.86 1011.73 1011.43 1010.73 1010.66 1010.44
997.12 996.38 994.82 994.46 994.39 994.15 994.61 995.29 995.53 996.17 996.70 997.04 997.63 998.40 999.14 999.82 1000.29 1000.89 1001.63 1002.37 1003.23 1004.00 1004.93 1006.28 1007.75 1008.94 1010.02 1010.61 1010.69 1010.84 1011.01 1011.30 1011.64 1012.00 1011.93 1012.22 1012.51 1012.43 1012.21 1012.39 1012.50 1012.66 1012.57 1012.17 1012.02 1011.35 1011.09 1010.81 1010.80
996.86 995.74 995.11 994.24 993.75 993.95 995.17 995.30 995.59 996.67 997.22 997.92 998.47 999.44 1000.04 1000.55 1000.90 1001.53 1002.49 1003.60 1004.38 1005.71 1007.25 1008.25 1009.03 1010.30 1011.11 1011.16 1011.21 1011.49 1011.84 1012.12 1012.54 1012.93 1013.30 1013.37 1013.51 1013.05 1012.78 1012.74 1012.80 1012.87 1012.77 1012.62 1012.58 1012.22 1011.82 1011.57 1011.33
996.77 996.03 995.14 994.29 993.54 993.54 994.74 995.38 995.84 997.27 997.66 998.39 999.41 1000.45 1001.47 1002.29 1002.77 1003.76 1004.63 1006.00 1006.64 1007.40 1008.14 1009.46 1010.26 1011.06 1011.48 1011.75 1012.00 1012.34 1012.73 1013.09 1013.46 1013.74 1013.90 1013.92 1013.81 1013.55 1013.48 1013.43 1013.06 1013.10 1012.76 1012.77 1013.12 1012.98 1012.33 1011.83 1011.72
996.67 996.22 995.02 994.13 993.63 993.90 995.10 996.84 996.83 997.91 998.83 1000.01 1001.05 1002.94 1004.21 1004.58 1005.34 1005.84 1006.31 1007.21 1008.01 1008.90 1009.97 1010.46 1010.93 1011.54 1012.15 1012.59 1012.88 1013.27 1013.56 1013.96 1014.39 1014.69 1014.73 1014.61 1014.33 1014.41 1014.55 1014.40 1014.03 1013.57 1013.33 1013.30 1013.41 1013.07 1012.84 1012.33 1011.83
Wind_Speed
16 16 13 9 9 9 19 20 20 3 3 6 3 6 13 19 16 7 15 9 22 22 19 18 16 16 16 18 18 17 17 17 15 14 13 12 11 12 12 10 10 11 10 9 9 9 8 7 7
13 15 9 9 11 16 15 20 15 9 10 3 4 4 3 16 13 15 12 19 23 21 18 18 16 17 17 18 18 18 17 16 15 14 13 12 11 11 11 10 10 10 9 8 8 8 7 5 5
14 13 10 12 16 18 18 22 11 12 5 8 6 6 5 10 9 8 20 20 23 20 19 17 17 17 17 18 18 18 17 17 16 15 13 12 11 10 10 10 10 9 9 8 8 6 5 4 3
9 10 10 17 22 25 28 7 10 15 11 7 5 11 9 4 5 10 19 22 21 21 20 18 18 17 18 18 18 18 17 17 16 15 14 13 12 10 9 10 9 8 7 7 7 6 5 4 3
12 11 14 19 25 26 23 3 3 7 16 13 8 11 11 10 7 18 20 20 20 20 20 19 17 18 18 18 18 17 17 16 16 16 14 12 11 10 9 8 8 8 7 6 5 4 4 2 2
12 14 15 22 25 27 22 8 6 16 10 7 9 11 9 8 16 18 19 19 19 19 20 18 16 16 16 17 18 17 17 16 15 15 14 13 11 10 9 8 8 7 6 5 5 3 2 3 4
20 17 23 24 25 25 27 13 16 15 7 11 7 6 9 12 17 18 19 18 19 19 19 16 16 15 13 14 14 15 15 15 15 14 13 11 11 9 8 7 6 6 5 4 3 3 4 4 5
17 18 27 25 22 26 23 20 14 18 12 12 1 4 14 12 16 18 19 18 19 19 19 18 16 16 14 13 13 14 15 14 13 13 12 12 10 9 8 6 7 7 6 6 5 5 5 6 7
23 19 22 29 27 22 19 16 17 14 14 7 6 7 18 11 14 17 18 19 18 17 18 19 18 17 16 14 13 12 13 14 14 13 12 11 10 10 12 7 12 10 8 7 7 6 6 8 11
22 21 29 23 22 22 19 21 18 15 12 10 10 9 10 12 12 16 18 18 19 19 19 17 17 16 16 12 14 12 12 11 11 12 13 10 10 10 8 12 10 8 8 8 9 9 9 10 10
28 25 23 24 22 22 18 15 13 19 19 15 17 16 11 14 15 15 16 17 18 18 16 18 13 12 14 13 11 8 8 8 9 12 12 11 9 8 7 7 7 8 11 8 10 10 8 13 9
25 27 27 21 17 10 15 11 21 15 15 12 6 19 13 12 15 16 17 17 18 18 16 17 17 13 11 10 10 10 9 9 8 10 12 8 6 7 7 7 8 8 8 7 7 5 9 5 7
31 23 25 26 15 12 13 17 16 15 18 9 6 8 11 11 12 13 15 16 17 16 16 16 16 13 10 9 10 9 8 9 9 9 11 10 9 6 7 6 7 5 8 8 5 8 5 7 9
21 25 20 26 17 16 22 20 17 17 14 9 10 12 13 12 11 10 12 14 16 16 16 15 15 12 12 10 8 8 7 8 8 9 10 12 8 6 7 7 7 8 8 6 8 7 6 8 8
24 24 25 21 21 18 18 21 23 18 14 14 15 14 11 12 12 11 11 12 13 13 14 13 14 14 11 12 9 7 7 9 8 8 9 11 9 4 5 8 8 8 7 8 6 6 6 8 8
21 19 23 24 23 23 21 23 23 21 18 17 19 14 11 11 13 12 12 12 11 9 12 12 12 15 13 11 9 8 8 8 7 7 7 9 9 8 8 9 8 8 7 7 8 8 8 8 8
21 24 25 29 25 20 23 16 23 20 20 19 18 17 14 12 11 10 11 14 6 8 12 11 13 12 14 11 8 8 7 6 6 1 4 8 11 10 8 8 9 6 7 8 7 7 7 6 8
29 32 25 25 25 26 22 19 18 21 20 20 18 18 15 16 12 13 12 12 13 12 10 11 11 12 11 9 9 8 7 5 6 6 7 9 9 11 7 6 8 6 9 9 7 7 7 8 7
22 24 24 24 22 24 23 21 19 22 19 20 19 18 17 15 15 13 12 12 11 12 11 10 9 9 8 9 9 9 8 8 8 8 5 9 11 10 9 8 9 7 10 9 6 7 9 8 9
27 24 27 21 18 21 22 22 17 14 17 20 20 19 18 16 16 15 13 12 10 9 10 11 10 9 7 6 6 6 7 9 9 10 12 12 13 11 10 9 10 10 11 10 8 8 6 8 8
28 23 26 21 17 17 21 21 27 19 18 22 22 19 18 18 17 16 14 12 11 10 9 9 10 11 11 10 8 5 6 5 6 8 8 10 13 11 11 11 10 7 9 5 7 7 9 9 9
27 17 21 22 18 15 25 14 23 22 20 22 24 23 21 20 16 14 14 14 11 11 9 9 8 9 9 10 9 8 7 8 6 5 3 3 10 9 10 8 8 8 7 6 7 7 10 9 10
21 18 21 21 19 20 21 18 24 20 21 24 22 23 21 19 18 17 15 14 13 11 8 10 8 7 7 9 10 6 10 8 9 2 3 2 4 3 8 7 7 8 7 5 8 8 9 5 7
22 25 18 15 16 18 25 19 18 26 27 23 20 19 17 17 16 15 13 10 9 10 12 9 8 4 6 7 7 8 8 9 1 3 1 2 2 1 6 6 7 6 5 7 8 8 11 9 9
22 23 17 17 16 16 18 20 7 22 25 25 24 22 20 18 17 15 16 14 13 13 8 12 9 6 4 4 6 5 5 4 4 2 2 1 4 5 6 6 7 7 7 9 9 8 6 5 6
27 24 16 29 19 15 21 14 9 11 15 19 21 19 20 18 16 16 16 14 13 12 11 10 9 7 6 4 2 6 7 5 7 9 7 7 5 6 5 7 7 7 7 7 8 8 7 8 7
29 26 22 16 16 16 18 9 14 16 11 12 13 13 14 16 15 15 13 11 8 9 6 10 14 14 11 9 10 11 11 10 9 7 4 5 6 3 7 7 7 8 9 9 10 8 8 7 9
23 25 12 11 19 15 15 15 15 16 17 15 14 10 12 12 10 7 11 10 9 16 15 12 15 13 11 11 11 11 11 11 9 8 8 6 5 6 6 6 6 7 8 9 10 10 10 10 8
17 17 13 7 17 11 14 13 20 17 17 13 13 14 17 14 14 14 14 13 13 12 14 15 13 13 13 13 13 12 11 11 9 8 7 7 7 8 8 8 7 8 8 9 9 10 12 12 11
19 23 16 8 9 11 12 10 17 14 12 15 17 18 12 14 15 14 16 16 16 18 15 13 15 15 13 12 12 12 10 10 9 7 8 8 9 9 10 10 10 10 10 10 10 11 12 13 13
Wind_Direction
268 254 254 262 242 232 248 232 253 134 172 67 35 324 30 36 15 57 118 133 126 131 137 139 130 141 136 133 132 134 136 135 136 138 138 134 130 127 122 119 117 117 117 118 120 123 122 123 117
264 244 250 269 244 243 230 239 188 234 80 116 163 173 141 70 69 114 121 132 127 136 148 139 131 137 134 133 134 137 135 134 136 139 136 133 131 130 127 125 121 122 125 130 133 135 134 128 120
251 249 260 231 235 243 246 210 159 197 111 214 180 359 60 95 100 96 121 134 129 142 151 132 134 131 136 136 134 135 135 138 138 139 135 132 133 131 130 132 132 138 144 145 145 149 146 139 122
220 219 243 258 241 226 255 269 182 140 180 200 74 112 96 55 124 109 141 137 141 148 140 136 133 135 140 139 138 139 139 140 140 139 137 140 137 131 134 135 140 149 158 160 156 157 163 169 155
231 229 226 231 236 250 221 243 83 198 186 178 169 127 106 96 106 129 143 141 151 148 137 148 140 142 145 142 143 142 142 143 143 142 141 141 140 140 141 144 149 158 170 174 173 176 184 211 230
211 229 226 227 229 230 253 165 187 249 187 166 214 126 101 124 131 143 146 153 149 141 140 142 140 141 147 148 147 147 148 149 147 146 145 145 146 151 153 154 154 162 174 183 189 207 244 274 283
225 211 231 238 222 228 229 194 213 221 218 219 80 211 111 139 135 146 150 155 144 137 147 154 155 145 141 145 147 149 151 152 150 147 146 147 149 155 156 158 162 170 176 184 197 221 253 265 275
229 243 232 236 244 227 207 177 219 219 214 83 38 215 148 119 148 149 155 155 148 151 145 156 158 162 164 159 153 156 156 155 152 149 148 148 151 161 163 163 176 182 184 190 199 217 240 257 262
221 234 235 228 229 240 220 175 212 229 231 152 90 22 93 141 161 163 156 158 156 161 157 163 166 164 169 163 163 164 166 159 155 156 157 157 187 180 162 147 152 180 193 203 209 220 239 255 257
216 227 231 240 236 235 236 185 203 213 212 167 162 99 135 156 172 176 168 166 167 165 166 165 170 166 166 162 156 178 170 179 185 182 175 195 202 186 198 157 161 181 201 217 219 219 230 238 252
217 230 228 239 244 241 230 199 204 213 212 205 179 152 166 166 172 186 183 174 171 171 172 165 166 166 174 166 165 179 174 179 190 192 179 219 200 180 207 167 185 205 203 218 198 208 229 231 252
215 225 248 228 246 240 233 220 217 219 217 205 127 135 165 173 177 186 186 177 175 172 175 164 172 176 192 171 176 185 184 185 191 192 186 210 218 198 219 220 200 197 181 214 217 228 226 289 270
220 224 220 248 238 222 234 231 215 203 234 115 153 137 172 179 182 194 186 175 175 174 179 176 171 180 196 200 182 199 199 189 197 184 188 212 215 204 212 229 240 208 213 215 226 232 256 247 233
217 224 235 223 238 204 225 228 225 223 216 172 186 194 180 174 177 186 191 175 178 171 179 183 177 179 198 209 192 206 199 183 210 198 195 216 216 185 221 222 229 237 232 228 225 222 241 227 252
227 217 228 219 214 206 213 227 211 215 218 187 203 202 186 170 170 181 184 183 178 171 182 191 185 177 204 204 211 219 205 234 204 214 201 197 212 210 255 226 222 233 236 239 247 259 240 254 251
218 212 213 214 208 214 204 217 212 212 196 203 205 190 175 174 168 181 173 178 179 172 181 192 196 182 194 202 212 224 236 216 218 221 208 208 205 217 194 261 237 237 230 222 232 227 238 241 248
209 214 218 202 204 209 209 226 199 197 215 204 197 192 178 164 172 162 171 161 169 183 170 198 214 211 190 207 214 218 229 225 234 277 240 221 227 218 206 218 242 231 243 236 228 246 249 260 264
199 212 203 215 186 209 193 228 228 177 207 205 194 200 190 172 178 163 166 167 170 184 177 184 197 213 196 196 211 218 215 216 251 220 232 229 236 235 218 243 263 216 235 235 221 239 250 257 282
203 204 219 205 187 197 214 207 214 178 204 201 197 195 197 199 172 170 178 169 176 187 185 194 190 192 211 205 203 206 214 211 216 240 218 228 238 227 221 226 243 227 252 239 209 229 234 256 256
228 188 217 186 185 191 205 203 202 202 203 210 207 197 200 196 193 170 178 180 181 179 195 191 195 185 191 218 236 240 207 220 217 224 215 227 228 226 223 220 247 222 231 224 223 234 251 255 259
227 206 196 199 156 187 200 213 214 179 202 213 212 202 204 201 199 173 177 180 180 188 189 204 203 203 202 227 201 210 271 269 222 238 234 224 233 224 227 220 228 269 254 224 226 234 238 244 257
212 209 197 200 165 191 202 202 206 201 196 209 208 209 206 205 208 213 191 177 191 186 182 179 193 202 212 220 243 215 248 243 231 243 11 1 248 210 232 241 234 240 251 267 241 232 248 236 254
209 186 213 191 183 194 190 234 189 200 196 203 206 204 206 199 212 221 224 202 187 184 191 173 181 199 237 201 244 200 242 260 244 55 303 237 258 275 272 264 268 255 256 281 270 265 263 268 273
205 189 190 187 185 223 174 223 213 190 198 191 198 204 210 217 219 215 215 226 223 209 191 155 140 178 198 227 208 251 269 252 300 224 122 232 249 227 32 18 349 341 6 318 317 310 291 285 275
202 191 170 185 195 212 175 201 115 175 193 193 195 202 212 216 221 220 217 219 222 223 206 129 131 149 187 201 217 214 267 298 355 281 213 161 51 31 14 11 28 11 6 356 345 328 326 323 320
191 192 174 180 185 188 183 196 193 139 177 192 189 194 199 207 210 214 217 207 219 210 230 114 115 141 141 95 105 54 62 71 60 39 40 36 59 47 18 28 18 8 9 354 350 323 340 343 328
185 198 194 190 187 189 153 169 128 140 149 156 155 169 180 191 206 199 205 205 212 215 107 93 87 79 75 79 79 79 75 68 73 76 99 80 18 99 43 30 8 357 353 354 350 321 329 337 326
199 203 206 231 185 159 168 174 146 162 158 160 161 166 190 192 193 151 80 75 82 77 84 98 99 105 125 117 107 91 87 82 77 71 66 55 39 36 28 20 8 341 345 344 348 338 333 321 315
189 222 235 241 203 172 168 169 139 168 173 142 141 126 88 97 90 91 95 92 99 109 97 87 96 108 105 95 90 81 76 74 66 59 46 36 23 11 2 351 350 328 335 344 334 322 303 320 309
190 201 214 209 169 166 144 93 148 123 117 124 114 98 112 109 109 121 110 97 99 105 118 120 110 103 93 87 82 83 81 71 61 47 34 19 11 7 351 343 348 342 342 343 328 317 324 318 324